Flag for Uruguay Weather past 2 weeks in Maldonado, Uruguay

Now
59 °F

Clear.


Feels Like: 59 °F
Forecast: 53 / 64 °F
Wind: No wind

Location: Capitan Corbeta

Current Time: Jul 29, 2015 at 4:31:01 AM

Latest Report: Jul 29, 2015 at 4:00 AM


Visibility: 10 mi

Pressure: 29.92 "Hg

Humidity: 82%

Dew point: 54 °F

Location of MaldonadoLocation

Historic Weather in Maldonado — Graph

°F

Maldonado temperature yesterday

Maximum temperature yesterday: 75 °F (at 1:00 PM)
Minimum temperature yesterday: 52 °F (at 4:00 AM)
Average temperature yesterday: 63 °F

Past Weeks' High & Low Weather Summary

 TemperatureHumidityPressure
High75 °F (Jul 28, 1:00 PM)100% (Jul 19, 2:00 AM)30.33 "Hg (Jul 19, 2:00 AM)
Low32 °F (Jul 16, 1:00 AM)31% (Jul 15, 2:00 PM)29.83 "Hg (Jul 28, 3:00 PM)
Average50 °F76%30.16 "Hg
* Reported Jul 14 5:00 AM — Jul 29 3:00 AM, Maldonado, Weather by CustomWeather, © 2015

Note: Actual official high and low records may vary slightly from our data, if they occured in-between our weather recording intervals... More about our weather records

Advertising

Maldonado weather history for previous 24 hours

 ConditionsComfort  
Time TempWeatherWind HumidityBarometerVisibility
3:00 AM
Wed, Jul 29
59 °FClear.No wind88%29.89 "Hg10 mi
1:00 AM61 °FPassing clouds.3 mph77%29.89 "HgN/A
12:00 AM66 °FPassing clouds.No wind73%29.86 "HgN/A
11:00 PM
Tue, Jul 28
68 °FPassing clouds.6 mph69%29.86 "HgN/A
10:00 PM68 °FPassing clouds.No wind73%29.83 "HgN/A
9:00 PM66 °FClear.No wind73%29.83 "Hg10 mi
8:00 PM66 °FClear.6 mph68%29.83 "Hg10 mi
6:00 PM70 °FPassing clouds.5 mph60%29.83 "HgN/A
5:00 PM72 °FPassing clouds.9 mph61%29.83 "HgN/A
4:00 PM72 °FScattered clouds.9 mph57%29.83 "HgN/A
3:00 PM75 °FPartly sunny.9 mph50%29.83 "HgN/A
2:00 PM75 °FPartly sunny.9 mph47%29.86 "HgN/A
1:00 PM75 °FScattered clouds.9 mph44%29.89 "HgN/A
12:00 PM72 °FPartly sunny.9 mph57%29.92 "HgN/A
11:00 AM64 °FPartly sunny.8 mph73%29.92 "HgN/A
10:00 AM59 °FOvercast.12 mph88%29.92 "HgN/A
9:00 AM55 °FScattered clouds.8 mph88%29.95 "HgN/A
8:00 AM54 °FSunny.7 mph88%29.95 "Hg10 mi
7:00 AM52 °FSunny.8 mph88%29.92 "Hg10 mi
6:00 AM54 °FClear.8 mph94%29.89 "Hg10 mi
5:00 AM52 °FClear.6 mph88%29.89 "Hg10 mi
4:00 AM52 °FClear.6 mph88%29.92 "Hg10 mi
Weather by CustomWeather, © 2015

See weather overviewHow to use our weather pages